{"data":{"norad_id":66814,"epoch":"2026-05-25T01:39:40.613184Z","epoch_age_seconds":69343,"freshness":"FRESH","line1":"1 66814U 25278Z   26145.06922006  .00013493  00000+0  49880-3 0  9993","line2":"2 66814  43.0011  42.7259 0001478 282.9504  77.1182 15.27590519 26890","mean_motion":15.27590519,"eccentricity":0.0001478,"inclination_deg":43.0011,"raan_deg":42.7259,"arg_perigee_deg":282.9504,"mean_anomaly_deg":77.1182,"bstar":0.0004988,"rev_number":2689,"period_min":94.266099592099,"perigee_km":482.00351990054,"apogee_km":484.03167719987,"semimajor_km":6861.1545985502,"source":"CELESTRAK","updated_at":"2026-05-25T13:38:21.331942Z"}}